LA1KNX Weather Reports


time (UTC)temp
C
wind
direction
speed
KPH
gust
KPH
rain 1hr
cm
rain 24hr
cm
rain mn
cm
humidity
%
barometer
mb
20260507090006 16 2 6.4 0.0 0.00 0.00 0.00 61 1018.2
20260507084502 15 2 6.4 0.0 0.00 0.00 0.00 61 1018.2
20260507083004 16 2 6.4 0.0 0.00 0.00 0.00 61 1018.2
20260507081501 16 4 6.4 0.0 0.00 0.00 0.00 61 1018.2
20260507080004 16 4 6.4 0.0 0.00 0.00 0.00 61 1018.2
20260507074502 15 4 6.4 0.0 0.00 0.00 0.00 61 1018.2
20260507073004 13 4 6.4 0.0 0.00 0.00 0.00 61 1018.2
20260507071504 12 4 6.4 0.0 0.00 0.00 0.00 61 1018.2
20260507070003 10 4 6.4 0.0 0.00 0.00 0.00 61 1018.2
20260507064501 6 4 6.4 0.0 0.00 0.00 0.00 61 1018.2
20260507063002 3 26 1.6 0.0 0.00 0.00 0.00 61 1018.2
20260507061502 3 26 1.6 0.0 0.00 0.00 0.00 61 1018.2
20260507060002 2 26 1.6 0.0 0.00 0.00 0.00 61 1018.2
20260507054504 2 202 3.2 0.0 0.00 0.00 0.00 61 1018.2
20260507053003 1 202 3.2 0.0 0.00 0.00 0.00 61 1018.2
20260507051503 1 202 3.2 0.0 0.00 0.00 0.00 61 1018.2
20260507050005 1 202 3.2 0.0 0.00 0.00 0.00 61 1018.2
20260507044503 0 202 3.2 0.0 0.00 0.00 0.00 61 1018.2
20260507043002 0 42 3.2 0.0 0.00 0.00 0.00 61 1018.2
20260507041505 0 42 3.2 0.0 0.00 0.00 0.00 61 1018.2
20260507040003 0 336 6.4 0.0 0.00 0.00 0.00 61 1018.2
20260507034501 0 336 6.4 0.0 0.00 0.00 0.00 61 1018.2
20260507033002 0 336 6.4 0.0 0.00 0.00 0.00 61 1018.2
20260507031503 0 336 6.4 0.0 0.00 0.00 0.00 61 1018.2
20260507030003 0 336 6.4 0.0 0.00 0.00 0.00 61 1018.2
20260507024501 0 336 6.4 0.0 0.00 0.00 0.00 61 1018.2
20260507023005 1 312 12.9 0.0 0.00 0.00 0.00 61 1018.2
20260507021501 1 312 12.9 0.0 0.00 0.00 0.00 61 1018.2
20260507020003 1 309 12.9 0.0 0.00 0.00 0.00 61 1018.2
20260507014502 1 309 12.9 0.0 0.00 0.00 0.00 61 1018.2
20260507013003 1 309 12.9 0.0 0.00 0.00 0.00 61 1018.2
20260507010005 1 309 12.9 0.0 0.00 0.00 0.00 61 1018.2
20260507004502 2 308 12.9 0.0 0.00 0.00 0.00 61 1018.2
20260507003003 2 308 12.9 0.0 0.00 0.00 0.00 61 1018.2
20260507001501 2 308 12.9 0.0 0.00 0.00 0.00 61 1018.2
20260507000003 2 309 14.5 0.0 0.00 0.00 0.00 61 1018.2
20260506234502 3 309 14.5 0.0 0.00 0.00 0.00 61 1018.2
20260506233006 3 309 14.5 0.0 0.00 0.00 0.00 61 1018.2
20260506231501 3 309 14.5 0.0 0.00 0.00 0.00 61 1018.2
20260506230004 3 309 14.5 0.0 0.00 0.00 0.00 61 1018.2
20260506224502 3 300 12.9 0.0 0.00 0.00 0.00 61 1018.2
20260506223002 3 300 12.9 0.0 0.00 0.00 0.00 61 1018.2
20260506221502 3 276 6.4 0.0 0.00 0.00 0.00 61 1018.2
20260506220003 4 276 6.4 0.0 0.00 0.00 0.00 61 1018.2
20260506214501 4 276 6.4 0.0 0.00 0.00 0.00 61 1018.2
20260506213002 5 276 6.4 0.0 0.00 0.00 0.00 61 1018.2
20260506211504 5 276 6.4 0.0 0.00 0.00 0.00 61 1018.2
20260506210002 5 267 4.8 0.0 0.00 0.00 0.00 61 1018.2
20260506204502 5 267 4.8 0.0 0.00 0.00 0.00 61 1018.2
20260506203004 5 267 4.8 0.0 0.00 0.00 0.00 61 1018.2
20260506201502 5 201 8.0 0.0 0.00 0.00 0.00 61 1018.2
20260506200003 6 201 8.0 0.0 0.00 0.00 0.00 61 1018.2
20260506194502 6 201 8.0 0.0 0.00 0.00 0.00 61 1018.2
20260506193002 6 201 8.0 0.0 0.00 0.00 0.00 61 1018.2
20260506191502 6 201 8.0 0.0 0.00 0.00 0.00 61 1018.2
20260506190002 7 201 8.0 0.0 0.00 0.00 0.00 61 1018.2
20260506184502 7 201 8.0 0.0 0.00 0.00 0.00 61 1018.2
20260506183002 7 156 9.7 0.0 0.00 0.00 0.00 61 1018.2
20260506181505 8 156 9.7 0.0 0.00 0.00 0.00 61 1018.2
20260506180002 8 156 9.7 0.0 0.00 0.00 0.00 61 1018.2
20260506174502 8 130 11.3 0.0 0.00 0.00 0.00 61 1018.2
20260506173005 8 130 11.3 0.0 0.00 0.00 0.00 61 1018.2
20260506171502 8 130 11.3 0.0 0.00 0.00 0.00 61 1018.2
20260506170002 8 130 11.3 0.0 0.00 0.00 0.00 61 1018.2
20260506164503 8 130 11.3 0.0 0.00 0.00 0.00 61 1018.2
20260506163005 8 108 9.7 0.0 0.00 0.00 0.00 61 1018.2
20260506161502 8 108 9.7 0.0 0.00 0.00 0.00 61 1018.2
20260506160002 8 108 9.7 0.0 0.00 0.00 0.00 61 1018.2
20260506154502 8 89 9.7 0.0 0.00 0.00 0.00 61 1018.2
20260506153003 8 89 9.7 0.0 0.00 0.00 0.00 61 1018.2
20260506151502 7 89 9.7 0.0 0.00 0.00 0.00 61 1018.2
20260506150002 7 89 9.7 0.0 0.00 0.00 0.00 61 1018.2
20260506144502 7 89 9.7 0.0 0.00 0.00 0.00 61 1018.2
20260506143001 7 94 9.7 0.0 0.00 0.00 0.00 61 1018.2
20260506141503 7 94 9.7 0.0 0.00 0.00 0.00 61 1018.2
20260506140002 7 92 11.3 0.0 0.00 0.00 0.00 61 1018.2
20260506134502 8 92 11.3 0.0 0.00 0.00 0.00 61 1018.2
20260506133003 8 92 11.3 0.0 0.00 0.00 0.00 61 1018.2
20260506131505 8 92 11.3 0.0 0.00 0.00 0.00 61 1018.2
20260506130003 8 92 11.3 0.0 0.00 0.00 0.00 61 1018.2
20260506124502 8 99 9.7 0.0 0.00 0.00 0.00 61 1018.2
20260506123002 9 99 9.7 0.0 0.00 0.00 0.00 61 1018.2
20260506121503 8 99 9.7 0.0 0.00 0.00 0.00 61 1018.2
20260506120004 8 101 8.0 0.0 0.00 0.00 0.00 61 1018.2
20260506114502 8 101 8.0 0.0 0.00 0.00 0.00 61 1018.2
20260506113002 8 101 8.0 0.0 0.00 0.00 0.00 61 1018.2
20260506111503 8 101 8.0 0.0 0.00 0.00 0.00 61 1018.2
20260506110003 8 101 8.0 0.0 0.00 0.00 0.00 61 1018.2
20260506103002 8 109 8.0 0.0 0.00 0.00 0.00 61 1018.2
20260506101503 8 98 6.4 0.0 0.00 0.00 0.00 61 1018.2
20260506100004 8 98 6.4 0.0 0.00 0.00 0.00 61 1018.2
20260506094502 10 98 6.4 0.0 0.00 0.00 0.00 61 1018.2
20260506093002 11 98 6.4 0.0 0.00 0.00 0.00 61 1018.2
20260506091501 11 98 6.4 0.0 0.00 0.00 0.00 61 1018.2